Flag for Germany Weather past 2 weeks in Münster, North Rhine-Westphalia, Germany

Now
57 °F

Clear.


Feels Like: 57 °F
Forecast: 50 / 77 °F
Wind: 1 mph from North

Location: Muenster / Osnabrueck

Current Time: Aug 2, 2015 at 12:54:15 AM

Latest Report: Aug 1, 2015 at 11:20 PM


Visibility: 10 mi

Pressure: 30.07 "Hg

Humidity: 82%

Dew point: 52 °F

Location of MünsterLocation

Historic Weather in Münster — Graph

°F

Münster temperature yesterday

Maximum temperature yesterday: 75 °F (at 2:50 PM)
Minimum temperature yesterday: 48 °F (at 12:20 AM)
Average temperature yesterday: 62 °F

Past Weeks' High & Low Weather Summary

 TemperatureHumidityPressure
High81 °F (Jul 21, 4:20 PM)100% (Jul 20, 4:50 AM)30.12 "Hg (Jul 20, 4:50 AM)
Low45 °F (Jul 31, 5:50 AM)32% (Jul 18, 4:50 PM)29.47 "Hg (Jul 25, 7:20 AM)
Average63 °F72%29.86 "Hg
* Reported Jul 17 11:20 PM — Aug 1 11:20 PM, Münster, Weather by CustomWeather, © 2015

Note: Actual official high and low records may vary slightly from our data, if they occured in-between our weather recording intervals... More about our weather records

Advertising

Münster weather history for previous 24 hours

 ConditionsComfort  
Time TempWeatherWind HumidityBarometerVisibility
11:20 PM
Sat, Aug 1
57 °FClear.1 mph82%30.07 "Hg10 mi
10:50 PM59 °FClear.3 mph72%30.04 "Hg10 mi
10:20 PM63 °FClear.6 mph64%30.04 "Hg10 mi
9:50 PM63 °FSunny.6 mph64%30.04 "Hg10 mi
9:20 PM64 °FSunny.7 mph60%30.04 "Hg10 mi
8:50 PM66 °FSunny.6 mph56%30.01 "Hg10 mi
8:20 PM70 °FSunny.7 mph50%30.01 "Hg10 mi
7:50 PM72 °FPassing clouds.8 mph47%30.01 "HgN/A
7:20 PM73 °FPassing clouds.8 mph41%29.98 "HgN/A
6:50 PM73 °FPassing clouds.8 mph41%29.98 "HgN/A
6:20 PM73 °FPassing clouds.6 mph41%29.98 "HgN/A
5:50 PM73 °FPassing clouds.8 mph44%29.98 "HgN/A
5:20 PM73 °FSunny.7 mph41%29.98 "Hg10 mi
4:50 PM73 °FPassing clouds.5 mph44%29.98 "HgN/A
4:20 PM75 °FSunny.5 mph41%29.98 "Hg10 mi
3:50 PM75 °FPassing clouds.5 mph39%29.98 "HgN/A
3:20 PM73 °FSunny.3 mph36%29.98 "Hg10 mi
2:50 PM75 °FSunny.3 mph36%29.98 "Hg10 mi
2:20 PM73 °FPassing clouds.6 mph36%29.98 "HgN/A
1:50 PM72 °FSunny.5 mph41%29.98 "Hg10 mi
1:20 PM72 °FSunny.5 mph41%29.98 "Hg10 mi
12:50 PM72 °FSunny.3 mph44%29.98 "Hg10 mi
12:20 PM70 °FSunny.3 mph46%29.98 "Hg10 mi
11:50 AM68 °FSunny.3 mph49%30.01 "Hg10 mi
11:20 AM66 °FSunny.5 mph52%30.01 "Hg10 mi
10:50 AM66 °FPassing clouds.6 mph52%30.01 "HgN/A
10:20 AM63 °FPassing clouds.6 mph56%30.01 "HgN/A
9:50 AM63 °FPassing clouds.6 mph56%30.01 "HgN/A
9:20 AM61 °FPassing clouds.5 mph59%30.01 "HgN/A
8:50 AM59 °FSunny.5 mph68%30.01 "Hg10 mi
8:20 AM57 °FPassing clouds.5 mph67%30.01 "HgN/A
7:50 AM55 °FPassing clouds.3 mph72%30.01 "HgN/A
7:20 AM52 °FSunny.5 mph82%30.01 "Hg10 mi
6:50 AM48 °FSunny.3 mph94%30.01 "Hg10 mi
6:20 AM48 °FClear.3 mph94%30.01 "Hg10 mi
5:50 AM50 °FClear.3 mph88%30.01 "Hg10 mi
5:20 AM50 °FPassing clouds.3 mph88%30.01 "HgN/A
4:50 AM50 °FPassing clouds.3 mph88%30.04 "HgN/A
4:20 AM50 °FPassing clouds.3 mph88%30.04 "HgN/A
3:50 AM50 °FClear.3 mph82%30.04 "Hg10 mi
3:20 AM50 °FPassing clouds.3 mph88%30.04 "HgN/A
2:50 AM52 °FClear.3 mph82%30.04 "Hg10 mi
2:20 AM52 °FPassing clouds.3 mph82%30.04 "HgN/A
1:50 AM50 °FClear.5 mph88%30.04 "Hg10 mi
1:20 AM50 °FPassing clouds.3 mph88%30.07 "HgN/A
12:50 AM50 °FClear.2 mph88%30.07 "Hg10 mi
12:20 AM48 °FClear.2 mph87%30.07 "Hg10 mi
Weather by CustomWeather, © 2015

See weather overviewHow to use our weather pages